Weather in Butovo

Russia / Ivanovo Oblast     57°08′34″N   40°26′28″E
temp.,
°C
wind,
m/s
gust,
m/s
humid.,
%
clouds,
%
prec.,
mm/h
press.,
hPa
HPBL,
m
19 may, wed
wed1900:00+18se514687 0.0 1011288
03:00+17ese515868 0.0 1011334
06:00+18se6157911 0.0 1011429
09:00+23ese715635 0.0 1010629
12:00+26se713515 0.0 10101367
15:00+27ese815524 0.0 10092046
18:00+24se7136118 0.0 1009857
21:00+20se51182100 5.1 1010244
20 may, thu
thu2000:00+17se4994100 0.4 1010213
03:00+16ese5139130 0.6 1009337
06:00+16ese5119085 0.6 1009342
09:00+20ese69756 0.6 1008622
12:00+23se8116159 0.2 10071803
15:00+20sse6107794 3.6 10071022
18:00+19sse487769 0.6 1006984
21:00+15sse3784100 0.6 1006122
21 may, fri
fri2100:00+13sse389318 0.0 1006178
03:00+11s379791 0.0 1006177
06:00+13ssw369131 0.0 1005250
09:00+16ssw457778 0.3 1005867
12:00+16wsw567874 1.3 1007952
15:00+15w798094 2.8 1009904
18:00+15wnw59695 0.1 10111121
21:00+11sw338110 0.1 101441
22 may, sat
sat2200:00+9sw378790 0.0 1015110
03:00+8sw367949 0.0 101799
06:00+10w36794 0.0 1018166
09:00+15w23594 0.0 1019647
12:00+17sw34454 0.0 10191875
15:00+19sw45445 0.0 10182165
18:00+18wsw355848 0.0 1017332
21:00+13s34715 0.0 101755
23 may, sun
sun2300:00+10ssw34899 0.0 101855
03:00+10s359333 0.0 101880
06:00+12sse248650 0.0 1018123
09:00+17se4764100 0.0 1016882
12:00+18ese5759100 0.0 10141142
15:00+18se5981100 0.6 1011884
18:00+16ese51295100 2.9 1007529
21:00+16ese61298100 5.3 1004404